Simultaneous Nadir Overpasses (SNOs) Predictions

Prediction of SNOs between LANDSAT-8 and TERRA Satellite Orbit:

Table of predicted SNOs for the next 14.0 days since TLE Epoch: 6/8/2024
Index Date (LANDSAT-8) Time (LANDSAT-8) Lat,Lon (LANDSAT-8) SZA (LANDSAT-8 ) Date (TERRA) Time (TERRA) Lat,Lon (TERRA) SZA (TERRA ) Distance(km) Time Diff (sec)
1 06/21/2024 10:40:39 -81.74, -89.58 116.02 06/21/2024 10:41:52 -81.74, -89.44 115.96 2.27 73
2 06/21/2024 11:30:05 81.74, 78.17 64.00 06/21/2024 11:31:12 81.74, 78.28 64.05 1.83 67
3 06/21/2024 12:19:31 -81.73,-113.89 115.97 06/21/2024 12:20:34 -81.74,-114.09 115.96 3.21 63
4 06/21/2024 13:08:58 81.74, 53.43 63.99 06/21/2024 13:09:54 81.74, 53.63 64.05 3.13 56
5 06/21/2024 13:58:24 -81.73,-138.62 115.97 06/21/2024 13:59:16 -81.74,-138.74 115.96 1.91 52
6 06/21/2024 14:47:50 81.73, 29.12 64.05 06/21/2024 14:48:36 81.74, 28.98 64.06 2.37 46
7 06/21/2024 15:37:17 -81.73,-163.36 115.97 06/21/2024 15:37:58 -81.74,-163.39 115.95 0.69 41
8 06/21/2024 16:26:43 81.73, 4.39 64.05 06/21/2024 16:27:18 81.74, 4.33 64.06 1.09 35
9 06/21/2024 17:16:09 -81.72, 172.33 115.92 06/21/2024 17:16:39 -81.72, 172.37 115.90 0.76 30
10 06/21/2024 18:05:35 81.72, -19.92 64.10 06/21/2024 18:05:59 81.72, -19.91 64.11 0.43 24
11 06/21/2024 18:55:02 -81.73, 147.60 115.92 06/21/2024 18:55:21 -81.72, 147.72 115.89 2.02 19
12 06/21/2024 19:44:28 81.72, -44.65 64.10 06/21/2024 19:44:41 81.72, -44.56 64.12 1.57 13
13 06/21/2024 20:33:55 -81.73, 122.87 115.92 06/21/2024 20:34:03 -81.72, 123.07 115.89 3.31 8
14 06/21/2024 21:23:21 81.72, -69.39 64.10 06/21/2024 21:23:23 81.72, -69.21 64.12 2.86 2
15 06/21/2024 22:12:47 -81.72, 98.55 115.87 06/21/2024 22:12:45 -81.72, 98.42 115.89 2.15 2
16 06/21/2024 23:02:13 81.71, -93.70 64.15 06/21/2024 23:02:05 81.72, -93.87 64.12 2.64 8
17 06/21/2024 23:51:40 -81.72, 73.82 115.87 06/21/2024 23:51:27 -81.72, 73.77 115.88 0.85 13
18 06/22/2024 00:41:06 81.71,-118.43 64.15 06/22/2024 00:40:47 81.72,-118.52 64.13 1.33 19
19 06/22/2024 01:30:33 -81.72, 49.09 115.87 06/22/2024 01:30:09 -81.72, 49.11 115.88 0.46 24
20 06/22/2024 02:19:59 81.71,-143.17 64.15 06/22/2024 02:19:29 81.71,-143.17 64.13 0.04 30
21 06/22/2024 03:09:26 -81.72, 24.35 115.87 06/22/2024 03:08:51 -81.72, 24.46 115.88 1.76 35
22 06/22/2024 03:58:52 81.72,-167.90 64.15 06/22/2024 03:58:11 81.71,-167.82 64.13 1.29 41



Historial Predications of SNOs between LANDSAT-8 and TERRA
